TimeAKDT,TemperatureF,Dew PointF,Humidity,Sea Level PressureIn,VisibilityMPH,Wind Direction,Wind SpeedMPH,Gust SpeedMPH,PrecipitationIn,Events,Conditions,WindDirDegrees,DateUTC
12:16 AM,44.6,37.4,76,29.28,10.0,Calm,Calm,-,N/A,,Overcast,0,2012-09-26 08:16:00
12:36 AM,44.6,35.6,71,29.29,10.0,SSE,4.6,-,N/A,,Overcast,160,2012-09-26 08:36:00
12:56 AM,44.6,37.4,76,29.30,10.0,ESE,3.5,-,N/A,,Overcast,110,2012-09-26 08:56:00
1:16 AM,44.6,35.6,71,29.30,10.0,South,3.5,-,N/A,,Mostly Cloudy,170,2012-09-26 09:16:00
1:36 AM,42.8,35.6,76,29.31,10.0,East,3.5,-,N/A,,Partly Cloudy,100,2012-09-26 09:36:00
1:56 AM,42.8,37.4,81,29.32,10.0,Calm,Calm,-,N/A,,Partly Cloudy,0,2012-09-26 09:56:00
2:16 AM,44.6,35.6,71,29.32,10.0,East,3.5,-,N/A,,Clear,90,2012-09-26 10:16:00
2:36 AM,44.6,37.4,76,29.33,10.0,East,3.5,-,N/A,,Clear,80,2012-09-26 10:36:00
2:56 AM,41.0,35.6,81,29.34,10.0,Calm,Calm,-,N/A,,Mostly Cloudy,0,2012-09-26 10:56:00
3:16 AM,42.8,35.6,76,29.34,10.0,East,5.8,-,N/A,,Scattered Clouds,100,2012-09-26 11:16:00
3:36 AM,39.2,35.6,87,29.35,10.0,SE,3.5,-,N/A,,Mostly Cloudy,140,2012-09-26 11:36:00
3:56 AM,41.0,35.6,81,29.36,10.0,SE,4.6,-,N/A,,Overcast,130,2012-09-26 11:56:00
4:16 AM,42.8,35.6,76,29.35,10.0,Calm,Calm,-,N/A,,Overcast,0,2012-09-26 12:16:00
4:36 AM,41.0,35.6,81,29.35,10.0,East,6.9,-,N/A,,Overcast,100,2012-09-26 12:36:00
4:56 AM,42.8,37.4,81,29.35,10.0,East,4.6,-,N/A,,Scattered Clouds,80,2012-09-26 12:56:00
5:16 AM,41.0,35.6,81,29.36,10.0,Calm,Calm,-,N/A,,Partly Cloudy,0,2012-09-26 13:16:00
5:36 AM,39.2,35.6,87,29.35,10.0,East,4.6,-,N/A,,Partly Cloudy,90,2012-09-26 13:36:00
5:56 AM,39.2,35.6,87,29.35,10.0,East,6.9,-,N/A,,Mostly Cloudy,90,2012-09-26 13:56:00
6:16 AM,41.0,35.6,81,29.35,10.0,ESE,6.9,-,N/A,,Mostly Cloudy,110,2012-09-26 14:16:00
6:36 AM,41.0,37.4,87,29.34,10.0,East,5.8,-,N/A,,Overcast,90,2012-09-26 14:36:00
6:56 AM,42.8,37.4,81,29.34,10.0,ESE,5.8,-,N/A,,Overcast,110,2012-09-26 14:56:00
7:16 AM,41.0,35.6,81,29.33,10.0,East,6.9,-,N/A,,Scattered Clouds,90,2012-09-26 15:16:00
7:36 AM,42.8,35.6,76,29.33,10.0,ESE,9.2,-,N/A,,Clear,110,2012-09-26 15:36:00
7:56 AM,42.8,35.6,76,29.32,10.0,East,8.1,-,N/A,,Clear,100,2012-09-26 15:56:00
8:16 AM,42.8,37.4,81,29.32,10.0,East,6.9,-,N/A,,Scattered Clouds,90,2012-09-26 16:16:00
8:36 AM,44.6,37.4,76,29.31,10.0,East,6.9,-,N/A,,Partly Cloudy,80,2012-09-26 16:36:00
8:56 AM,44.6,37.4,76,29.31,10.0,East,8.1,-,N/A,,Clear,90,2012-09-26 16:56:00
9:16 AM,44.6,37.4,76,29.30,10.0,East,4.6,-,N/A,,Clear,90,2012-09-26 17:16:00
9:36 AM,44.6,37.4,76,29.30,10.0,ENE,3.5,-,N/A,,Clear,60,2012-09-26 17:36:00
9:56 AM,44.6,37.4,76,29.29,10.0,NE,5.8,-,N/A,,Partly Cloudy,50,2012-09-26 17:56:00
10:16 AM,44.6,35.6,71,29.29,10.0,NE,4.6,-,N/A,,Partly Cloudy,50,2012-09-26 18:16:00
10:36 AM,44.6,35.6,71,29.27,10.0,East,4.6,-,N/A,,Clear,80,2012-09-26 18:36:00
10:56 AM,46.4,35.6,66,29.26,10.0,NE,6.9,-,N/A,,Clear,50,2012-09-26 18:56:00
11:16 AM,46.4,35.6,66,29.25,10.0,NE,5.8,-,N/A,,Scattered Clouds,40,2012-09-26 19:16:00
11:36 AM,48.2,35.6,62,29.25,10.0,ENE,10.4,-,N/A,,Partly Cloudy,60,2012-09-26 19:36:00
11:56 AM,48.2,35.6,62,29.24,10.0,NE,10.4,16.1,N/A,,Scattered Clouds,50,2012-09-26 19:56:00
12:16 PM,48.2,35.6,62,29.22,10.0,NE,11.5,18.4,N/A,,Mostly Cloudy,40,2012-09-26 20:16:00
12:36 PM,48.2,37.4,66,29.22,10.0,NE,12.7,18.4,N/A,,Scattered Clouds,50,2012-09-26 20:36:00
12:56 PM,48.2,35.6,62,29.20,10.0,NE,11.5,-,N/A,,Mostly Cloudy,50,2012-09-26 20:56:00
1:16 PM,48.2,35.6,62,29.18,10.0,NE,11.5,19.6,N/A,,Mostly Cloudy,50,2012-09-26 21:16:00
1:36 PM,48.2,35.6,62,29.16,10.0,NE,13.8,20.7,N/A,,Overcast,50,2012-09-26 21:36:00
1:56 PM,50.0,35.6,58,29.14,10.0,NE,15.0,24.2,N/A,,Mostly Cloudy,50,2012-09-26 21:56:00
2:16 PM,51.8,35.6,54,29.13,10.0,NE,17.3,27.6,N/A,,Mostly Cloudy,50,2012-09-26 22:16:00
2:36 PM,51.8,35.6,54,29.11,10.0,NE,19.6,24.2,N/A,,Overcast,40,2012-09-26 22:36:00
2:56 PM,51.8,35.6,54,29.09,10.0,NE,17.3,26.5,N/A,,Overcast,50,2012-09-26 22:56:00
3:16 PM,51.8,33.8,50,29.06,10.0,NE,15.0,25.3,N/A,,Overcast,40,2012-09-26 23:16:00
3:36 PM,48.2,37.4,66,29.04,10.0,NE,15.0,25.3,N/A,,Overcast,40,2012-09-26 23:36:00
3:56 PM,48.2,35.6,62,29.02,10.0,NE,16.1,27.6,N/A,,Overcast,50,2012-09-26 23:56:00
4:16 PM,48.2,35.6,62,29.01,10.0,NE,20.7,29.9,N/A,,Overcast,40,2012-09-27 00:16:00
4:36 PM,50.0,33.8,54,29.00,10.0,NE,25.3,36.8,N/A,,Overcast,50,2012-09-27 00:36:00
4:56 PM,50.0,33.8,54,28.97,10.0,ENE,19.6,29.9,N/A,,Overcast,60,2012-09-27 00:56:00
5:16 PM,51.8,33.8,50,28.95,10.0,NE,19.6,32.2,N/A,,Overcast,40,2012-09-27 01:16:00
5:36 PM,51.8,33.8,50,28.92,10.0,NE,19.6,25.3,N/A,,Overcast,40,2012-09-27 01:36:00
5:56 PM,51.8,33.8,50,28.93,10.0,NE,26.5,34.5,N/A,,Overcast,50,2012-09-27 01:56:00
6:16 PM,51.8,33.8,50,28.91,10.0,NE,21.9,31.1,N/A,,Overcast,50,2012-09-27 02:16:00
6:36 PM,50.0,33.8,54,28.89,10.0,NE,18.4,32.2,N/A,,Overcast,50,2012-09-27 02:36:00
6:56 PM,50.0,33.8,54,28.88,10.0,NE,25.3,38.0,N/A,,Overcast,50,2012-09-27 02:56:00
7:16 PM,50.0,33.8,54,28.87,10.0,NE,19.6,28.8,N/A,,Overcast,50,2012-09-27 03:16:00
7:36 PM,50.0,33.8,54,28.86,10.0,NNE,16.1,27.6,N/A,,Overcast,30,2012-09-27 03:36:00
7:56 PM,50.0,33.8,54,28.85,10.0,NE,12.7,24.2,N/A,,Overcast,50,2012-09-27 03:56:00
8:16 PM,48.2,35.6,62,28.85,10.0,NE,15.0,21.9,N/A,,Overcast,50,2012-09-27 04:16:00
8:36 PM,48.2,35.6,62,28.84,10.0,NE,15.0,24.2,N/A,,Overcast,50,2012-09-27 04:36:00
8:56 PM,48.2,35.6,62,28.83,10.0,NE,13.8,25.3,N/A,,Overcast,40,2012-09-27 04:56:00
9:16 PM,48.2,35.6,62,28.82,10.0,NE,13.8,18.4,N/A,,Overcast,40,2012-09-27 05:16:00
9:36 PM,48.2,35.6,62,28.81,10.0,NE,13.8,19.6,N/A,,Overcast,50,2012-09-27 05:36:00
9:56 PM,48.2,35.6,62,28.81,10.0,NE,16.1,21.9,N/A,,Overcast,50,2012-09-27 05:56:00
10:16 PM,48.2,35.6,62,28.80,10.0,ENE,12.7,21.9,N/A,,Overcast,60,2012-09-27 06:16:00
10:36 PM,48.2,35.6,62,28.80,10.0,NE,12.7,21.9,N/A,,Overcast,50,2012-09-27 06:36:00
10:56 PM,48.2,35.6,62,28.79,10.0,NE,11.5,-,N/A,,Overcast,50,2012-09-27 06:56:00
11:16 PM,48.2,35.6,62,28.78,10.0,NE,15.0,21.9,N/A,,Overcast,50,2012-09-27 07:16:00
11:36 PM,48.2,35.6,62,28.78,10.0,NE,12.7,24.2,N/A,,Mostly Cloudy,40,2012-09-27 07:36:00
11:56 PM,48.2,35.6,62,28.78,10.0,NE,9.2,-,N/A,,Mostly Cloudy,40,2012-09-27 07:56:00